Location: Bittkow
(50.3000°N, 19.0000°E)
Time: 03:23:27
(UTC+00:00)

Spot 4 Rocket - Pass Details

Date: 19 September 2020
Orbit: 775 x 782 km, 98.7° (Epoch: 18 October)

Event Time Altitude Azimuth Distance (km) Brightness Sun altitude
Rises 02:49:12 0° 10° (N) 3,275 7.7 -15.9°
Reaches altitude 10° 02:51:37 10° 5° (N) 2,342 6.9 -15.5°
Maximum altitude 02:56:29 45° 294° (WNW) 1,061 4.4 -14.8°
Enters shadow 02:59:44 20° 231° (SW) 1,748 5.3 -14.3°
